Multibeam Report for CV08_01


Ship Name: Celtic Voyager
Chief Scientist: Sheehan, Kevin
Geological Survey of Ireland
Source Organization: Geological Survey of Ireland (GSI)
Start Date: 2008-05-20
End Date: 2008-06-13


View ISO Metadata

Visit the full NCEI Bathymetry Viewer


Multibeam Bathymetry

Cruise Details

Project: INFOMAR
Instrument: Simrad EM3002

Data Quality

Number of Files: 790
Number of Records: 20097462
BATHYMETRY DATA Quantity Percentage
Number of Beams 5102761788 100%
Number of Good Beams 5064359123 99.25%
Number of Zero Beams 38402665 0.75%
Number of Flagged Beams 0 0%
AMPLITUDE DATA Quantity Percentage
Number of Beams 5102761788 100%
Number of Good Beams 5064359123 99.25%
Number of Zero Beams 38402665 0.75%
Number of Flagged Beams 0 0%
SIDESCAN DATA Quantity Percentage
Number of Pixels 20574225408 100%
Number of Good Pixels 2890881898 14.05%
Number of Zero Pixels 0 0%
Number of Flagged Pixels 17683343510 85.95%

Navigation Totals

Total Time: 464.2385 hours
Total Track Length: 5887.3129 km
Average Speed: 12.682 km/hr (6.8477 knots)

Cruise Bounds

Northern Extent: 54.705677
Southern Extent: 54.010693
Western Extent: -10.346459
Eastern Extent: -8.210141

Limits

Minimum Sonar Depth 0.32 Maximum Sonar Depth 6.05
Minimum Altitude 0 Maximum Altitude 96.13
Minimum Depth 3.31 Maximum Depth 102.82
Minimum Amplitude 0 Maximum Amplitude 18
Minimum Sidescan 0 Maximum Sidescan 18

File Information

Full Resolution Bathymetry as collected (raw): 789

Files File Size Description
0001_20080520_205401_Voyager.mb56.gz 43.78MB Simrad multibeam vendor format
0500_20080519_111146_Voyager.mb56.gz 776.24MB Simrad multibeam vendor format
0501_20080519_133552_Voyager.mb56.gz 856.55MB Simrad multibeam vendor format
0502_20080519_160721_Voyager.mb56.gz 542.79MB Simrad multibeam vendor format
0503_20080519_171723_Voyager.mb56.gz 793.78MB Simrad multibeam vendor format
0504_20080519_193747_Voyager.mb56.gz 355.57MB Simrad multibeam vendor format
0505_20080519_202845_Voyager.mb56.gz 52.94MB Simrad multibeam vendor format
0506_20080519_203622_Voyager.mb56.gz 410.25MB Simrad multibeam vendor format
0507_20080519_214049_Voyager.mb56.gz 450.18MB Simrad multibeam vendor format
0508_20080519_224115_Voyager.mb56.gz 404.70MB Simrad multibeam vendor format
0509_20080519_234738_Voyager.mb56.gz 417.84MB Simrad multibeam vendor format
0510_20080520_004659_Voyager.mb56.gz 358.31MB Simrad multibeam vendor format
0511_20080520_014639_Voyager.mb56.gz 284.29MB Simrad multibeam vendor format
0512_20080520_023508_Voyager.mb56.gz 293.79MB Simrad multibeam vendor format
0513_20080520_032404_Voyager.mb56.gz 267.37MB Simrad multibeam vendor format
0514_20080520_041310_Voyager.mb56.gz 279.60MB Simrad multibeam vendor format
0515_20080520_050020_Voyager.mb56.gz 256.88MB Simrad multibeam vendor format
0516_20080520_054423_Voyager.mb56.gz 251.45MB Simrad multibeam vendor format
0517_20080520_062805_Voyager.mb56.gz 248.61MB Simrad multibeam vendor format
0518_20080520_071004_Voyager.mb56.gz 17.62MB Simrad multibeam vendor format
0519_20080520_072454_Voyager.mb56.gz 1187.38MB Simrad multibeam vendor format
0520_20080520_095201_Voyager.mb56.gz 1240.78MB Simrad multibeam vendor format
0521_20080520_121438_Voyager.mb56.gz 728.81MB Simrad multibeam vendor format
0522_20080520_135529_Voyager.mb56.gz 128.86MB Simrad multibeam vendor format
0523_20080520_145933_Voyager.mb56.gz 330.86MB Simrad multibeam vendor format
0524_20080520_154014_Voyager.mb56.gz 580.85MB Simrad multibeam vendor format
0525_20080520_170325_Voyager.mb56.gz 547.31MB Simrad multibeam vendor format
0526_20080520_180606_Voyager.mb56.gz 740.15MB Simrad multibeam vendor format
0527_20080520_193516_Voyager.mb56.gz 599.13MB Simrad multibeam vendor format
0528_20080520_212858_Voyager.mb56.gz 433.78MB Simrad multibeam vendor format
0529_20080520_223029_Voyager.mb56.gz 401.07MB Simrad multibeam vendor format
0530_20080520_233018_Voyager.mb56.gz 409.59MB Simrad multibeam vendor format
0531_20080521_002644_Voyager.mb56.gz 402.76MB Simrad multibeam vendor format
0532_20080521_012437_Voyager.mb56.gz 403.88MB Simrad multibeam vendor format
0533_20080521_021924_Voyager.mb56.gz 401.53MB Simrad multibeam vendor format
0534_20080521_031729_Voyager.mb56.gz 670.06MB Simrad multibeam vendor format
0535_20080521_044303_Voyager.mb56.gz 319.61MB Simrad multibeam vendor format
0536_20080521_052434_Voyager.mb56.gz 314.28MB Simrad multibeam vendor format
0537_20080521_062407_Voyager.mb56.gz 269.51MB Simrad multibeam vendor format
0538_20080521_065444_Voyager.mb56.gz 565.42MB Simrad multibeam vendor format
0539_20080521_082717_Voyager.mb56.gz 647.57MB Simrad multibeam vendor format
0540_20080521_101631_Voyager.mb56.gz 636.93MB Simrad multibeam vendor format
0541_20080521_115650_Voyager.mb56.gz 710.84MB Simrad multibeam vendor format
0542_20080521_135545_Voyager.mb56.gz 577.07MB Simrad multibeam vendor format
0543_20080521_135355_Voyager.mb56.gz 11.63MB Simrad multibeam vendor format
0543_20080521_150442_Voyager.mb56.gz 561.74MB Simrad multibeam vendor format
0544_20080521_161430_Voyager.mb56.gz 590.45MB Simrad multibeam vendor format
0545_20080521_172541_Voyager.mb56.gz 23.25MB Simrad multibeam vendor format
0546_20080521_172929_Voyager.mb56.gz 25.49MB Simrad multibeam vendor format
0547_20080521_173337_Voyager.mb56.gz 626.11MB Simrad multibeam vendor format
0548_20080521_184828_Voyager.mb56.gz 606.94MB Simrad multibeam vendor format
0549_20080521_200346_Voyager.mb56.gz 254.52MB Simrad multibeam vendor format
0550_20080521_203316_Voyager.mb56.gz 241.25MB Simrad multibeam vendor format
0551_20080521_214729_Voyager.mb56.gz 205.29MB Simrad multibeam vendor format
0552_20080521_222217_Voyager.mb56.gz 458.76MB Simrad multibeam vendor format
0553_20080521_233315_Voyager.mb56.gz 472.54MB Simrad multibeam vendor format
0554_20080522_004556_Voyager.mb56.gz 457.72MB Simrad multibeam vendor format
0555_20080522_015604_Voyager.mb56.gz 455.21MB Simrad multibeam vendor format
0556_20080522_030638_Voyager.mb56.gz 452.67MB Simrad multibeam vendor format
0557_20080522_041559_Voyager.mb56.gz 449.85MB Simrad multibeam vendor format
0558_20080522_052433_Voyager.mb56.gz 244.82MB Simrad multibeam vendor format
0559_20080522_055420_Voyager.mb56.gz 207.37MB Simrad multibeam vendor format
0560_20080522_062055_Voyager.mb56.gz 213.38MB Simrad multibeam vendor format
0561_20080522_064655_Voyager.mb56.gz 100.39MB Simrad multibeam vendor format
0562_20080522_070208_Voyager.mb56.gz 91.84MB Simrad multibeam vendor format
0563_20080522_071443_Voyager.mb56.gz 76.05MB Simrad multibeam vendor format
0564_20080522_073032_Voyager.mb56.gz 57.27MB Simrad multibeam vendor format
0565_20080522_073815_Voyager.mb56.gz 54.62MB Simrad multibeam vendor format
0566_20080522_075535_Voyager.mb56.gz 545.65MB Simrad multibeam vendor format
0567_20080522_085646_Voyager.mb56.gz 212.64MB Simrad multibeam vendor format
0568_20080522_092253_Voyager.mb56.gz 228.54MB Simrad multibeam vendor format
0569_20080522_094908_Voyager.mb56.gz 40.60MB Simrad multibeam vendor format
0570_20080522_095505_Voyager.mb56.gz 339.96MB Simrad multibeam vendor format
0571_20080522_103931_Voyager.mb56.gz 126.89MB Simrad multibeam vendor format
0572_20080522_105528_Voyager.mb56.gz 76.02MB Simrad multibeam vendor format
0573_20080522_110749_Voyager.mb56.gz 85.05MB Simrad multibeam vendor format
0574_20080522_111950_Voyager.mb56.gz 879.79MB Simrad multibeam vendor format
0575_20080522_134219_Voyager.mb56.gz 294.81MB Simrad multibeam vendor format
0576_20080522_143344_Voyager.mb56.gz 353.81MB Simrad multibeam vendor format
0577_20080522_153033_Voyager.mb56.gz 377.97MB Simrad multibeam vendor format
0578_20080522_164931_Voyager.mb56.gz 503.68MB Simrad multibeam vendor format
0579_20080522_180742_Voyager.mb56.gz 618.15MB Simrad multibeam vendor format
0580_20080522_193408_Voyager.mb56.gz 98.45MB Simrad multibeam vendor format
0581_20080522_194636_Voyager.mb56.gz 64.73MB Simrad multibeam vendor format
0582_20080522_195455_Voyager.mb56.gz 64.64MB Simrad multibeam vendor format
0583_20080522_200338_Voyager.mb56.gz 74.95MB Simrad multibeam vendor format
0584_20080522_201416_Voyager.mb56.gz 513.16MB Simrad multibeam vendor format
0585_20080522_213044_Voyager.mb56.gz 434.85MB Simrad multibeam vendor format
0586_20080522_223822_Voyager.mb56.gz 420.52MB Simrad multibeam vendor format
0587_20080522_234131_Voyager.mb56.gz 437.64MB Simrad multibeam vendor format
0588_20080523_004617_Voyager.mb56.gz 428.43MB Simrad multibeam vendor format
0589_20080523_014839_Voyager.mb56.gz 432.00MB Simrad multibeam vendor format
0590_20080523_025215_Voyager.mb56.gz 413.82MB Simrad multibeam vendor format
0591_20080523_035314_Voyager.mb56.gz 496.50MB Simrad multibeam vendor format
0592_20080523_050805_Voyager.mb56.gz 771.12MB Simrad multibeam vendor format
0593_20080523_064401_Voyager.mb56.gz 590.26MB Simrad multibeam vendor format
0594_20080523_080049_Voyager.mb56.gz 526.70MB Simrad multibeam vendor format
0595_20080523_090727_Voyager.mb56.gz 98.58MB Simrad multibeam vendor format
0596_20080523_092048_Voyager.mb56.gz 118.93MB Simrad multibeam vendor format
0597_20080523_093645_Voyager.mb56.gz 49.37MB Simrad multibeam vendor format
0598_20080523_094415_Voyager.mb56.gz 39.41MB Simrad multibeam vendor format
0599_20080523_101405_Voyager.mb56.gz 102.85MB Simrad multibeam vendor format
0600_20080523_105500_Voyager.mb56.gz 66.83MB Simrad multibeam vendor format
0601_20080523_110538_Voyager.mb56.gz 59.73MB Simrad multibeam vendor format
0602_20080523_111454_Voyager.mb56.gz 65.75MB Simrad multibeam vendor format
0603_20080523_112339_Voyager.mb56.gz 65.74MB Simrad multibeam vendor format
0604_20080523_113358_Voyager.mb56.gz 847.26MB Simrad multibeam vendor format
0605_20080523_131422_Voyager.mb56.gz 452.18MB Simrad multibeam vendor format
0606_20080523_140428_Voyager.mb56.gz 249.46MB Simrad multibeam vendor format
0607_20080523_143211_Voyager.mb56.gz 248.57MB Simrad multibeam vendor format
0608_20080523_145934_Voyager.mb56.gz 413.67MB Simrad multibeam vendor format
0609_20080523_154457_Voyager.mb56.gz 240.27MB Simrad multibeam vendor format
0610_20080523_161208_Voyager.mb56.gz 306.89MB Simrad multibeam vendor format
0611_20080523_165246_Voyager.mb56.gz 213.86MB Simrad multibeam vendor format
0612_20080523_171718_Voyager.mb56.gz 488.07MB Simrad multibeam vendor format
0613_20080523_181323_Voyager.mb56.gz 226.71MB Simrad multibeam vendor format
0614_20080523_184114_Voyager.mb56.gz 35.97MB Simrad multibeam vendor format
0615_20080523_184722_Voyager.mb56.gz 274.45MB Simrad multibeam vendor format
0616_20080523_191928_Voyager.mb56.gz 421.20MB Simrad multibeam vendor format
0617_20080523_200623_Voyager.mb56.gz 219.58MB Simrad multibeam vendor format
0618_20080523_203307_Voyager.mb56.gz 59.60MB Simrad multibeam vendor format
0619_20080523_204408_Voyager.mb56.gz 40.59MB Simrad multibeam vendor format
0620_20080523_205122_Voyager.mb56.gz 488.73MB Simrad multibeam vendor format
0621_20080523_221621_Voyager.mb56.gz 419.64MB Simrad multibeam vendor format
0622_20080523_231803_Voyager.mb56.gz 417.25MB Simrad multibeam vendor format
0623_20080524_001730_Voyager.mb56.gz 403.85MB Simrad multibeam vendor format
0624_20080524_011551_Voyager.mb56.gz 392.39MB Simrad multibeam vendor format
0625_20080524_021121_Voyager.mb56.gz 371.79MB Simrad multibeam vendor format
0626_20080524_030612_Voyager.mb56.gz 349.34MB Simrad multibeam vendor format
0627_20080524_035617_Voyager.mb56.gz 359.97MB Simrad multibeam vendor format
0628_20080524_045141_Voyager.mb56.gz 147.91MB Simrad multibeam vendor format
0629_20080524_051837_Voyager.mb56.gz 510.57MB Simrad multibeam vendor format
0630_20080524_070534_Voyager.mb56.gz 704.58MB Simrad multibeam vendor format
0631_20080524_084245_Voyager.mb56.gz 1025.37MB Simrad multibeam vendor format
0632_20080524_110122_Voyager.mb56.gz 332.30MB Simrad multibeam vendor format
0633_20080524_114026_Voyager.mb56.gz 521.59MB Simrad multibeam vendor format
0634_20080524_123801_Voyager.mb56.gz 226.32MB Simrad multibeam vendor format
0635_20080524_130411_Voyager.mb56.gz 136.41MB Simrad multibeam vendor format
0636_20080524_132229_Voyager.mb56.gz 370.08MB Simrad multibeam vendor format
0637_20080524_140427_Voyager.mb56.gz 612.70MB Simrad multibeam vendor format
0638_20080524_154349_Voyager.mb56.gz 454.95MB Simrad multibeam vendor format
0639_20080524_163831_Voyager.mb56.gz 71.87MB Simrad multibeam vendor format
0640_20080524_164828_Voyager.mb56.gz 170.90MB Simrad multibeam vendor format
0641_20080524_170758_Voyager.mb56.gz 34.56MB Simrad multibeam vendor format
0642_20080524_171202_Voyager.mb56.gz 308.50MB Simrad multibeam vendor format
0643_20080524_174609_Voyager.mb56.gz 241.19MB Simrad multibeam vendor format
0644_20080524_181510_Voyager.mb56.gz 287.06MB Simrad multibeam vendor format
0645_20080524_184818_Voyager.mb56.gz 212.30MB Simrad multibeam vendor format
0646_20080524_191216_Voyager.mb56.gz 185.57MB Simrad multibeam vendor format
0647_20080524_193851_Voyager.mb56.gz 173.62MB Simrad multibeam vendor format
0648_20080524_200506_Voyager.mb56.gz 176.10MB Simrad multibeam vendor format
0649_20080524_202953_Voyager.mb56.gz 248.31MB Simrad multibeam vendor format
0650_20080524_205658_Voyager.mb56.gz 435.42MB Simrad multibeam vendor format
0651_20080524_215603_Voyager.mb56.gz 427.32MB Simrad multibeam vendor format
0652_20080524_225458_Voyager.mb56.gz 375.19MB Simrad multibeam vendor format
0653_20080524_234742_Voyager.mb56.gz 408.05MB Simrad multibeam vendor format
0654_20080525_004037_Voyager.mb56.gz 422.23MB Simrad multibeam vendor format
0655_20080525_014544_Voyager.mb56.gz 417.64MB Simrad multibeam vendor format
0656_20080525_023843_Voyager.mb56.gz 57.55MB Simrad multibeam vendor format
0657_20080525_024715_Voyager.mb56.gz 48.05MB Simrad multibeam vendor format
0658_20080525_025506_Voyager.mb56.gz 24.36MB Simrad multibeam vendor format
0659_20080525_025958_Voyager.mb56.gz 15.32MB Simrad multibeam vendor format
0660_20080525_030731_Voyager.mb56.gz 312.94MB Simrad multibeam vendor format
0661_20080525_034827_Voyager.mb56.gz 306.91MB Simrad multibeam vendor format
0662_20080525_042852_Voyager.mb56.gz 272.02MB Simrad multibeam vendor format
0663_20080525_050534_Voyager.mb56.gz 257.05MB Simrad multibeam vendor format
0664_20080525_053820_Voyager.mb56.gz 241.13MB Simrad multibeam vendor format
0665_20080525_061104_Voyager.mb56.gz 247.26MB Simrad multibeam vendor format
0666_20080525_064507_Voyager.mb56.gz 134.33MB Simrad multibeam vendor format
0667_20080525_072124_Voyager.mb56.gz 94.11MB Simrad multibeam vendor format
0668_20080525_073606_Voyager.mb56.gz 235.21MB Simrad multibeam vendor format
0669_20080525_080709_Voyager.mb56.gz 280.56MB Simrad multibeam vendor format
0670_20080525_084120_Voyager.mb56.gz 484.90MB Simrad multibeam vendor format
0671_20080525_093655_Voyager.mb56.gz 498.05MB Simrad multibeam vendor format
0672_20080525_103530_Voyager.mb56.gz 220.74MB Simrad multibeam vendor format
0673_20080525_110049_Voyager.mb56.gz 227.55MB Simrad multibeam vendor format
0674_20080525_113536_Voyager.mb56.gz 290.96MB Simrad multibeam vendor format
0675_20080525_121332_Voyager.mb56.gz 169.79MB Simrad multibeam vendor format
0676_20080525_130248_Voyager.mb56.gz 267.56MB Simrad multibeam vendor format
0677_20080525_133601_Voyager.mb56.gz 212.95MB Simrad multibeam vendor format
0678_20080525_140149_Voyager.mb56.gz 234.68MB Simrad multibeam vendor format
0679_20080525_143329_Voyager.mb56.gz 195.63MB Simrad multibeam vendor format
0680_20080525_145633_Voyager.mb56.gz 198.44MB Simrad multibeam vendor format
0681_20080525_152027_Voyager.mb56.gz 198.83MB Simrad multibeam vendor format
0682_20080525_154433_Voyager.mb56.gz 185.27MB Simrad multibeam vendor format
0683_20080525_160813_Voyager.mb56.gz 171.04MB Simrad multibeam vendor format
0684_20080525_163031_Voyager.mb56.gz 161.92MB Simrad multibeam vendor format
0685_20080525_165024_Voyager.mb56.gz 361.57MB Simrad multibeam vendor format
0686_20080525_173155_Voyager.mb56.gz 63.96MB Simrad multibeam vendor format
0687_20080525_174602_Voyager.mb56.gz 46.48MB Simrad multibeam vendor format
0688_20080525_180611_Voyager.mb56.gz 525.92MB Simrad multibeam vendor format
0689_20080525_191132_Voyager.mb56.gz 252.87MB Simrad multibeam vendor format
0690_20080525_194618_Voyager.mb56.gz 34.93MB Simrad multibeam vendor format
0691_20080525_202122_Voyager.mb56.gz 350.09MB Simrad multibeam vendor format
0692_20080525_211455_Voyager.mb56.gz 187.86MB Simrad multibeam vendor format
0693_20080525_220843_Voyager.mb56.gz 230.89MB Simrad multibeam vendor format
0694_20080525_231219_Voyager.mb56.gz 241.81MB Simrad multibeam vendor format
0695_20080525_235111_Voyager.mb56.gz 220.35MB Simrad multibeam vendor format
0696_20080526_002721_Voyager.mb56.gz 236.15MB Simrad multibeam vendor format
0697_20080526_010452_Voyager.mb56.gz 226.72MB Simrad multibeam vendor format
0698_20080526_014537_Voyager.mb56.gz 226.87MB Simrad multibeam vendor format
0699_20080526_022237_Voyager.mb56.gz 216.62MB Simrad multibeam vendor format
0700_20080526_025729_Voyager.mb56.gz 224.75MB Simrad multibeam vendor format
0701_20080526_033356_Voyager.mb56.gz 215.25MB Simrad multibeam vendor format
0702_20080526_040951_Voyager.mb56.gz 218.54MB Simrad multibeam vendor format
0703_20080526_044416_Voyager.mb56.gz 47.37MB Simrad multibeam vendor format
0704_20080526_045359_Voyager.mb56.gz 77.58MB Simrad multibeam vendor format
0705_20080526_050604_Voyager.mb56.gz 77.39MB Simrad multibeam vendor format
0706_20080526_051633_Voyager.mb56.gz 59.89MB Simrad multibeam vendor format
0707_20080526_052921_Voyager.mb56.gz 35.00MB Simrad multibeam vendor format
0708_20080526_053508_Voyager.mb56.gz 66.86MB Simrad multibeam vendor format
0709_20080526_054617_Voyager.mb56.gz 52.96MB Simrad multibeam vendor format
0710_20080526_055449_Voyager.mb56.gz 52.53MB Simrad multibeam vendor format
0711_20080526_060346_Voyager.mb56.gz 37.68MB Simrad multibeam vendor format
0712_20080526_060956_Voyager.mb56.gz 35.16MB Simrad multibeam vendor format
0713_20080526_061539_Voyager.mb56.gz 28.78MB Simrad multibeam vendor format
0714_20080526_062036_Voyager.mb56.gz 25.17MB Simrad multibeam vendor format
0715_20080526_062500_Voyager.mb56.gz 15.74MB Simrad multibeam vendor format
0716_20080526_062753_Voyager.mb56.gz 16.55MB Simrad multibeam vendor format
0717_20080526_063136_Voyager.mb56.gz 29.90MB Simrad multibeam vendor format
0718_20080526_064353_Voyager.mb56.gz 335.49MB Simrad multibeam vendor format
0719_20080526_081225_Voyager.mb56.gz 1083.42MB Simrad multibeam vendor format
0720_20080526_103503_Voyager.mb56.gz 455.10MB Simrad multibeam vendor format
0721_20080526_114912_Voyager.mb56.gz 1058.95MB Simrad multibeam vendor format
0722_20080526_144339_Voyager.mb56.gz 435.10MB Simrad multibeam vendor format
0723_20080526_161049_Voyager.mb56.gz 627.40MB Simrad multibeam vendor format
0724_20080526_175217_Voyager.mb56.gz 550.63MB Simrad multibeam vendor format
0725_20080526_191948_Voyager.mb56.gz 811.08MB Simrad multibeam vendor format
0726_20080526_211200_Voyager.mb56.gz 456.36MB Simrad multibeam vendor format
0727_20080526_222633_Voyager.mb56.gz 216.71MB Simrad multibeam vendor format
0728_20080526_230904_Voyager.mb56.gz 416.35MB Simrad multibeam vendor format
0729_20080527_002454_Voyager.mb56.gz 414.92MB Simrad multibeam vendor format
0730_20080527_013816_Voyager.mb56.gz 390.94MB Simrad multibeam vendor format
0731_20080527_024436_Voyager.mb56.gz 388.46MB Simrad multibeam vendor format
0732_20080527_035045_Voyager.mb56.gz 348.19MB Simrad multibeam vendor format
0733_20080527_045716_Voyager.mb56.gz 420.57MB Simrad multibeam vendor format
0734_20080527_060845_Voyager.mb56.gz 114.07MB Simrad multibeam vendor format
0735_20080527_062938_Voyager.mb56.gz 141.90MB Simrad multibeam vendor format
0736_20080527_065552_Voyager.mb56.gz 129.79MB Simrad multibeam vendor format
0737_20080527_072015_Voyager.mb56.gz 154.20MB Simrad multibeam vendor format
0738_20080527_074820_Voyager.mb56.gz 324.50MB Simrad multibeam vendor format
0739_20080527_084412_Voyager.mb56.gz 53.52MB Simrad multibeam vendor format
0740_20080527_091451_Voyager.mb56.gz 54.88MB Simrad multibeam vendor format
0741_20080527_092547_Voyager.mb56.gz 174.68MB Simrad multibeam vendor format
0742_20080527_095453_Voyager.mb56.gz 169.38MB Simrad multibeam vendor format
0743_20080527_102301_Voyager.mb56.gz 130.85MB Simrad multibeam vendor format
0744_20080527_104521_Voyager.mb56.gz 331.10MB Simrad multibeam vendor format
0745_20080527_114448_Voyager.mb56.gz 272.73MB Simrad multibeam vendor format
0746_20080527_123349_Voyager.mb56.gz 285.31MB Simrad multibeam vendor format
0747_20080527_132229_Voyager.mb56.gz 270.90MB Simrad multibeam vendor format
0748_20080527_141007_Voyager.mb56.gz 292.10MB Simrad multibeam vendor format
0749_20080527_150011_Voyager.mb56.gz 405.03MB Simrad multibeam vendor format
0750_20080527_162828_Voyager.mb56.gz 33.57MB Simrad multibeam vendor format
0751_20080527_164517_Voyager.mb56.gz 39.36MB Simrad multibeam vendor format
0752_20080527_171605_Voyager.mb56.gz 83.89MB Simrad multibeam vendor format
0752_20080527_174329_Voyager.mb56.gz 126.25MB Simrad multibeam vendor format
0753_20080527_180550_Voyager.mb56.gz 148.65MB Simrad multibeam vendor format
0754_20080527_183446_Voyager.mb56.gz 123.95MB Simrad multibeam vendor format
0755_20080527_185824_Voyager.mb56.gz 24.33MB Simrad multibeam vendor format
0756_20080527_190859_Voyager.mb56.gz 135.19MB Simrad multibeam vendor format
0757_20080527_193133_Voyager.mb56.gz 242.77MB Simrad multibeam vendor format
0758_20080527_201110_Voyager.mb56.gz 288.08MB Simrad multibeam vendor format
0759_20080527_205902_Voyager.mb56.gz 19.03MB Simrad multibeam vendor format
0760_20080527_210414_Voyager.mb56.gz 234.88MB Simrad multibeam vendor format
0761_20080527_214347_Voyager.mb56.gz 201.60MB Simrad multibeam vendor format
0762_20080527_224134_Voyager.mb56.gz 149.35MB Simrad multibeam vendor format
0763_20080527_232930_Voyager.mb56.gz 431.98MB Simrad multibeam vendor format
0764_20080528_005031_Voyager.mb56.gz 586.73MB Simrad multibeam vendor format
0765_20080528_022606_Voyager.mb56.gz 549.86MB Simrad multibeam vendor format
0766_20080528_035627_Voyager.mb56.gz 563.40MB Simrad multibeam vendor format
0767_20080528_055038_Voyager.mb56.gz 150.61MB Simrad multibeam vendor format
0768_20080528_061823_Voyager.mb56.gz 314.17MB Simrad multibeam vendor format
0769_20080528_070718_Voyager.mb56.gz 155.49MB Simrad multibeam vendor format
0770_20080528_073527_Voyager.mb56.gz 125.98MB Simrad multibeam vendor format
0771_20080528_083236_Voyager.mb56.gz 418.51MB Simrad multibeam vendor format
0772_20080528_093033_Voyager.mb56.gz 219.80MB Simrad multibeam vendor format
0773_20080528_095730_Voyager.mb56.gz 376.30MB Simrad multibeam vendor format
0774_20080528_104944_Voyager.mb56.gz 634.39MB Simrad multibeam vendor format
0775_20080528_121306_Voyager.mb56.gz 594.37MB Simrad multibeam vendor format
0776_20080528_133157_Voyager.mb56.gz 627.77MB Simrad multibeam vendor format
0777_20080528_145629_Voyager.mb56.gz 217.14MB Simrad multibeam vendor format
0778_20080528_153206_Voyager.mb56.gz 184.88MB Simrad multibeam vendor format
0779_20080528_160133_Voyager.mb56.gz 170.73MB Simrad multibeam vendor format
0780_20080528_162413_Voyager.mb56.gz 344.10MB Simrad multibeam vendor format
0781_20080528_170722_Voyager.mb56.gz 379.64MB Simrad multibeam vendor format
0782_20080528_175338_Voyager.mb56.gz 387.24MB Simrad multibeam vendor format
0783_20080528_184200_Voyager.mb56.gz 174.99MB Simrad multibeam vendor format
0784_20080528_190324_Voyager.mb56.gz 219.58MB Simrad multibeam vendor format
0785_20080528_193007_Voyager.mb56.gz 288.27MB Simrad multibeam vendor format
0786_20080528_200653_Voyager.mb56.gz 376.01MB Simrad multibeam vendor format
0787_20080528_205156_Voyager.mb56.gz 281.36MB Simrad multibeam vendor format
0788_20080528_214021_Voyager.mb56.gz 170.44MB Simrad multibeam vendor format
0789_20080528_223251_Voyager.mb56.gz 598.15MB Simrad multibeam vendor format
0790_20080529_001018_Voyager.mb56.gz 571.03MB Simrad multibeam vendor format
0791_20080529_014322_Voyager.mb56.gz 561.21MB Simrad multibeam vendor format
0792_20080529_050556_Voyager.mb56.gz 116.19MB Simrad multibeam vendor format
0793_20080529_052428_Voyager.mb56.gz 58.99MB Simrad multibeam vendor format
0794_20080529_053443_Voyager.mb56.gz 58.15MB Simrad multibeam vendor format
0795_20080529_054557_Voyager.mb56.gz 56.91MB Simrad multibeam vendor format
0796_20080529_055554_Voyager.mb56.gz 53.16MB Simrad multibeam vendor format
0797_20080529_060551_Voyager.mb56.gz 173.44MB Simrad multibeam vendor format
0798_20080529_063036_Voyager.mb56.gz 20.30MB Simrad multibeam vendor format
0799_20080529_063613_Voyager.mb56.gz 80.89MB Simrad multibeam vendor format
0800_20080529_074521_Voyager.mb56.gz 8.56MB Simrad multibeam vendor format
0801_20080529_081401_Voyager.mb56.gz 110.73MB Simrad multibeam vendor format
0802_20080529_083108_Voyager.mb56.gz 36.37MB Simrad multibeam vendor format
0803_20080529_083643_Voyager.mb56.gz 25.17MB Simrad multibeam vendor format
0804_20080529_084054_Voyager.mb56.gz 50.35MB Simrad multibeam vendor format
0805_20080529_084751_Voyager.mb56.gz 37.59MB Simrad multibeam vendor format
0806_20080529_085422_Voyager.mb56.gz 16.53MB Simrad multibeam vendor format
0807_20080529_085843_Voyager.mb56.gz 54.00MB Simrad multibeam vendor format
0808_20080529_090855_Voyager.mb56.gz 129.76MB Simrad multibeam vendor format
0809_20080529_093935_Voyager.mb56.gz 66.96MB Simrad multibeam vendor format
0810_20080529_095059_Voyager.mb56.gz 54.86MB Simrad multibeam vendor format
0811_20080529_100131_Voyager.mb56.gz 139.62MB Simrad multibeam vendor format
0812_20080529_104247_Voyager.mb56.gz 93.38MB Simrad multibeam vendor format
0813_20080529_110017_Voyager.mb56.gz 185.51MB Simrad multibeam vendor format
0814_20080529_113141_Voyager.mb56.gz 185.75MB Simrad multibeam vendor format
0815_20080529_120528_Voyager.mb56.gz 181.45MB Simrad multibeam vendor format
0816_20080529_123551_Voyager.mb56.gz 163.13MB Simrad multibeam vendor format
0817_20080529_130600_Voyager.mb56.gz 151.48MB Simrad multibeam vendor format
0818_20080529_133414_Voyager.mb56.gz 102.20MB Simrad multibeam vendor format
0819_20080529_135450_Voyager.mb56.gz 109.25MB Simrad multibeam vendor format
0820_20080529_141448_Voyager.mb56.gz 334.47MB Simrad multibeam vendor format
0821_20080529_151323_Voyager.mb56.gz 25.53MB Simrad multibeam vendor format
0822_20080529_155436_Voyager.mb56.gz 169.55MB Simrad multibeam vendor format
0823_20080529_162433_Voyager.mb56.gz 177.16MB Simrad multibeam vendor format
0824_20080529_165510_Voyager.mb56.gz 161.47MB Simrad multibeam vendor format
0825_20080529_172259_Voyager.mb56.gz 183.59MB Simrad multibeam vendor format
0826_20080529_175958_Voyager.mb56.gz 32.39MB Simrad multibeam vendor format
0827_20080529_181406_Voyager.mb56.gz 65.80MB Simrad multibeam vendor format
0828_20080529_185003_Voyager.mb56.gz 46.94MB Simrad multibeam vendor format
0829_20080529_192529_Voyager.mb56.gz 57.80MB Simrad multibeam vendor format
0830_20080529_194049_Voyager.mb56.gz 90.64MB Simrad multibeam vendor format
0831_20080529_195816_Voyager.mb56.gz 17.02MB Simrad multibeam vendor format
0832_20080529_201627_Voyager.mb56.gz 347.15MB Simrad multibeam vendor format
0833_20080529_210831_Voyager.mb56.gz 243.35MB Simrad multibeam vendor format
0834_20080529_214905_Voyager.mb56.gz 140.48MB Simrad multibeam vendor format
0835_20080529_232616_Voyager.mb56.gz 550.08MB Simrad multibeam vendor format
0836_20080530_005602_Voyager.mb56.gz 537.38MB Simrad multibeam vendor format
0837_20080530_022427_Voyager.mb56.gz 367.26MB Simrad multibeam vendor format
0838_20080530_032648_Voyager.mb56.gz 343.69MB Simrad multibeam vendor format
0838_20080530_042306_Voyager.mb56.gz 36.51MB Simrad multibeam vendor format
0839_20080530_043443_Voyager.mb56.gz 54.53MB Simrad multibeam vendor format
0840_20080530_050101_Voyager.mb56.gz 242.44MB Simrad multibeam vendor format
0841_20080530_054144_Voyager.mb56.gz 119.63MB Simrad multibeam vendor format
0842_20080530_060312_Voyager.mb56.gz 48.97MB Simrad multibeam vendor format
0843_20080530_061250_Voyager.mb56.gz 42.68MB Simrad multibeam vendor format
0844_20080530_062215_Voyager.mb56.gz 40.59MB Simrad multibeam vendor format
0845_20080530_063113_Voyager.mb56.gz 67.14MB Simrad multibeam vendor format
0846_20080530_064334_Voyager.mb56.gz 26.05MB Simrad multibeam vendor format
0847_20080530_065550_Voyager.mb56.gz 22.24MB Simrad multibeam vendor format
0848_20080530_070023_Voyager.mb56.gz 19.05MB Simrad multibeam vendor format
0849_20080530_070752_Voyager.mb56.gz 8.51MB Simrad multibeam vendor format
0850_20080530_070901_Voyager.mb56.gz 182.46MB Simrad multibeam vendor format
0851_20080530_073708_Voyager.mb56.gz 76.45MB Simrad multibeam vendor format
0852_20080530_074916_Voyager.mb56.gz 174.45MB Simrad multibeam vendor format
0853_20080530_081551_Voyager.mb56.gz 150.67MB Simrad multibeam vendor format
0854_20080530_083804_Voyager.mb56.gz 132.16MB Simrad multibeam vendor format
0855_20080530_085835_Voyager.mb56.gz 144.95MB Simrad multibeam vendor format
0856_20080530_092307_Voyager.mb56.gz 40.25MB Simrad multibeam vendor format
0857_20080530_093556_Voyager.mb56.gz 129.81MB Simrad multibeam vendor format
0858_20080531_075426_Voyager.mb56.gz 15.60MB Simrad multibeam vendor format
0859_20080531_075851_Voyager.mb56.gz 76.24MB Simrad multibeam vendor format
0860_20080531_081252_Voyager.mb56.gz 72.29MB Simrad multibeam vendor format
0861_20080531_082503_Voyager.mb56.gz 74.82MB Simrad multibeam vendor format
0862_20080531_083938_Voyager.mb56.gz 39.19MB Simrad multibeam vendor format
0863_20080531_084745_Voyager.mb56.gz 246.68MB Simrad multibeam vendor format
0864_20080531_091812_Voyager.mb56.gz 67.91MB Simrad multibeam vendor format
0865_20080531_092546_Voyager.mb56.gz 66.89MB Simrad multibeam vendor format
0866_20080531_093541_Voyager.mb56.gz 23.06MB Simrad multibeam vendor format
0867_20080531_093938_Voyager.mb56.gz 9.43MB Simrad multibeam vendor format
0868_20080531_094222_Voyager.mb56.gz 85.72MB Simrad multibeam vendor format
0869_20080531_102649_Voyager.mb56.gz 8.92MB Simrad multibeam vendor format
0870_20080531_103216_Voyager.mb56.gz 12.13MB Simrad multibeam vendor format
0871_20080531_105006_Voyager.mb56.gz 9.73MB Simrad multibeam vendor format
0872_20080531_105734_Voyager.mb56.gz 15.57MB Simrad multibeam vendor format
0873_20080531_110235_Voyager.mb56.gz 5.27MB Simrad multibeam vendor format
0874_20080531_114222_Voyager.mb56.gz 37.06MB Simrad multibeam vendor format
0875_20080531_120437_Voyager.mb56.gz 15.81MB Simrad multibeam vendor format
0876_20080531_121850_Voyager.mb56.gz 194.84MB Simrad multibeam vendor format
0877_20080531_125318_Voyager.mb56.gz 363.83MB Simrad multibeam vendor format
0878_20080531_135244_Voyager.mb56.gz 69.71MB Simrad multibeam vendor format
0879_20080531_140611_Voyager.mb56.gz 75.83MB Simrad multibeam vendor format
0880_20080531_151836_Voyager.mb56.gz 226.80MB Simrad multibeam vendor format
0881_20080531_155632_Voyager.mb56.gz 281.42MB Simrad multibeam vendor format
0882_20080531_164631_Voyager.mb56.gz 273.12MB Simrad multibeam vendor format
0883_20080531_173110_Voyager.mb56.gz 255.71MB Simrad multibeam vendor format
0884_20080531_181459_Voyager.mb56.gz 316.76MB Simrad multibeam vendor format
0885_20080531_190500_Voyager.mb56.gz 252.69MB Simrad multibeam vendor format
0886_20080531_194713_Voyager.mb56.gz 187.28MB Simrad multibeam vendor format
0887_20080531_202548_Voyager.mb56.gz 268.26MB Simrad multibeam vendor format
0888_20080531_215910_Voyager.mb56.gz 528.06MB Simrad multibeam vendor format
0889_20080531_232425_Voyager.mb56.gz 116.21MB Simrad multibeam vendor format
0890_20080531_234456_Voyager.mb56.gz 116.65MB Simrad multibeam vendor format
0891_20080601_000634_Voyager.mb56.gz 492.20MB Simrad multibeam vendor format
0892_20080601_012910_Voyager.mb56.gz 497.26MB Simrad multibeam vendor format
0893_20080601_025124_Voyager.mb56.gz 487.77MB Simrad multibeam vendor format
0894_20080601_041428_Voyager.mb56.gz 484.58MB Simrad multibeam vendor format
0895_20080601_054247_Voyager.mb56.gz 413.16MB Simrad multibeam vendor format
0896_20080601_064233_Voyager.mb56.gz 356.03MB Simrad multibeam vendor format
0897_20080601_073112_Voyager.mb56.gz 144.63MB Simrad multibeam vendor format
0898_20080601_082953_Voyager.mb56.gz 728.81MB Simrad multibeam vendor format
0899_20080601_100309_Voyager.mb56.gz 475.20MB Simrad multibeam vendor format
0900_20080601_110208_Voyager.mb56.gz 88.42MB Simrad multibeam vendor format
0901_20080601_111424_Voyager.mb56.gz 218.59MB Simrad multibeam vendor format
0902_20080601_114755_Voyager.mb56.gz 580.61MB Simrad multibeam vendor format
0903_20080601_131909_Voyager.mb56.gz 447.84MB Simrad multibeam vendor format
0904_20080601_143153_Voyager.mb56.gz 503.77MB Simrad multibeam vendor format
0905_20080601_155842_Voyager.mb56.gz 480.12MB Simrad multibeam vendor format
0906_20080601_172355_Voyager.mb56.gz 486.96MB Simrad multibeam vendor format
0907_20080601_184628_Voyager.mb56.gz 414.84MB Simrad multibeam vendor format
0908_20080601_195709_Voyager.mb56.gz 463.24MB Simrad multibeam vendor format
0909_20080601_211522_Voyager.mb56.gz 451.32MB Simrad multibeam vendor format
0910_20080601_223501_Voyager.mb56.gz 479.05MB Simrad multibeam vendor format
0911_20080601_235537_Voyager.mb56.gz 480.76MB Simrad multibeam vendor format
0912_20080602_011541_Voyager.mb56.gz 459.29MB Simrad multibeam vendor format
0913_20080602_023259_Voyager.mb56.gz 472.57MB Simrad multibeam vendor format
0914_20080602_035258_Voyager.mb56.gz 468.82MB Simrad multibeam vendor format
0915_20080602_051222_Voyager.mb56.gz 236.84MB Simrad multibeam vendor format
0916_20080602_055413_Voyager.mb56.gz 94.72MB Simrad multibeam vendor format
0917_20080602_062523_Voyager.mb56.gz 42.13MB Simrad multibeam vendor format
0918_20080602_065322_Voyager.mb56.gz 13.77MB Simrad multibeam vendor format
0919_20080602_070158_Voyager.mb56.gz 11.69MB Simrad multibeam vendor format
0920_20080602_083822_Voyager.mb56.gz 19.83MB Simrad multibeam vendor format
0921_20080602_085520_Voyager.mb56.gz 359.81MB Simrad multibeam vendor format
0922_20080602_114850_Voyager.mb56.gz 862.23MB Simrad multibeam vendor format
0923_20080602_134037_Voyager.mb56.gz 311.82MB Simrad multibeam vendor format
0924_20080602_142451_Voyager.mb56.gz 440.79MB Simrad multibeam vendor format
0925_20080602_152836_Voyager.mb56.gz 721.04MB Simrad multibeam vendor format
0926_20080602_170808_Voyager.mb56.gz 688.96MB Simrad multibeam vendor format
0927_20080602_183815_Voyager.mb56.gz 406.24MB Simrad multibeam vendor format
0928_20080602_192729_Voyager.mb56.gz 824.27MB Simrad multibeam vendor format
0929_20080602_212422_Voyager.mb56.gz 100.32MB Simrad multibeam vendor format
0930_20080602_214212_Voyager.mb56.gz 363.60MB Simrad multibeam vendor format
0931_20080602_232633_Voyager.mb56.gz 466.25MB Simrad multibeam vendor format
0932_20080603_004517_Voyager.mb56.gz 505.21MB Simrad multibeam vendor format
0933_20080603_020915_Voyager.mb56.gz 120.42MB Simrad multibeam vendor format
0934_20080603_023040_Voyager.mb56.gz 149.33MB Simrad multibeam vendor format
0935_20080603_025623_Voyager.mb56.gz 93.34MB Simrad multibeam vendor format
0936_20080603_031344_Voyager.mb56.gz 107.24MB Simrad multibeam vendor format
0937_20080603_033234_Voyager.mb56.gz 80.26MB Simrad multibeam vendor format
0938_20080603_034726_Voyager.mb56.gz 90.17MB Simrad multibeam vendor format
0939_20080603_050337_Voyager.mb56.gz 1130.74MB Simrad multibeam vendor format
0940_20080603_072605_Voyager.mb56.gz 952.78MB Simrad multibeam vendor format
0941_20080603_092759_Voyager.mb56.gz 163.66MB Simrad multibeam vendor format
0942_20080603_102314_Voyager.mb56.gz 70.02MB Simrad multibeam vendor format
0943_20080603_103434_Voyager.mb56.gz 252.59MB Simrad multibeam vendor format
0944_20080603_111720_Voyager.mb56.gz 248.10MB Simrad multibeam vendor format
0945_20080603_120509_Voyager.mb56.gz 263.13MB Simrad multibeam vendor format
0946_20080603_124928_Voyager.mb56.gz 273.95MB Simrad multibeam vendor format
0947_20080603_133738_Voyager.mb56.gz 285.07MB Simrad multibeam vendor format
0948_20080603_142713_Voyager.mb56.gz 262.83MB Simrad multibeam vendor format
0949_20080603_151227_Voyager.mb56.gz 278.57MB Simrad multibeam vendor format
0950_20080603_160258_Voyager.mb56.gz 270.31MB Simrad multibeam vendor format
0951_20080603_164956_Voyager.mb56.gz 276.83MB Simrad multibeam vendor format
0952_20080603_174248_Voyager.mb56.gz 337.24MB Simrad multibeam vendor format
0953_20080603_184937_Voyager.mb56.gz 1056.08MB Simrad multibeam vendor format
0954_20080603_211242_Voyager.mb56.gz 755.97MB Simrad multibeam vendor format
0955_20080603_225516_Voyager.mb56.gz 814.39MB Simrad multibeam vendor format
0956_20080604_004617_Voyager.mb56.gz 726.05MB Simrad multibeam vendor format
0957_20080604_022835_Voyager.mb56.gz 300.80MB Simrad multibeam vendor format
0958_20080604_030757_Voyager.mb56.gz 580.79MB Simrad multibeam vendor format
0959_20080604_042051_Voyager.mb56.gz 366.47MB Simrad multibeam vendor format
0960_20080604_060439_Voyager.mb56.gz 256.66MB Simrad multibeam vendor format
0961_20080604_065049_Voyager.mb56.gz 250.79MB Simrad multibeam vendor format
0962_20080604_073617_Voyager.mb56.gz 244.39MB Simrad multibeam vendor format
0963_20080604_081955_Voyager.mb56.gz 255.11MB Simrad multibeam vendor format
0964_20080604_090515_Voyager.mb56.gz 231.76MB Simrad multibeam vendor format
0965_20080604_094527_Voyager.mb56.gz 158.84MB Simrad multibeam vendor format
0966_20080604_201257_Voyager.mb56.gz 249.25MB Simrad multibeam vendor format
0967_20080604_205558_Voyager.mb56.gz 79.62MB Simrad multibeam vendor format
0968_20080604_212110_Voyager.mb56.gz 210.31MB Simrad multibeam vendor format
0969_20080604_215751_Voyager.mb56.gz 190.54MB Simrad multibeam vendor format
0970_20080604_223148_Voyager.mb56.gz 193.00MB Simrad multibeam vendor format
0971_20080604_230547_Voyager.mb56.gz 123.44MB Simrad multibeam vendor format
0972_20080604_232913_Voyager.mb56.gz 126.92MB Simrad multibeam vendor format
0973_20080604_235155_Voyager.mb56.gz 105.76MB Simrad multibeam vendor format
0974_20080605_001243_Voyager.mb56.gz 70.48MB Simrad multibeam vendor format
0975_20080605_002555_Voyager.mb56.gz 39.38MB Simrad multibeam vendor format
0976_20080605_003428_Voyager.mb56.gz 32.06MB Simrad multibeam vendor format
0977_20080605_030450_Voyager.mb56.gz 364.68MB Simrad multibeam vendor format
0978_20080605_040732_Voyager.mb56.gz 391.72MB Simrad multibeam vendor format
0979_20080605_051412_Voyager.mb56.gz 384.35MB Simrad multibeam vendor format
0980_20080605_062010_Voyager.mb56.gz 392.70MB Simrad multibeam vendor format
0981_20080605_072644_Voyager.mb56.gz 415.08MB Simrad multibeam vendor format
0982_20080605_083835_Voyager.mb56.gz 427.15MB Simrad multibeam vendor format
0983_20080605_095101_Voyager.mb56.gz 453.11MB Simrad multibeam vendor format
0984_20080605_111117_Voyager.mb56.gz 386.58MB Simrad multibeam vendor format
0985_20080605_121716_Voyager.mb56.gz 371.48MB Simrad multibeam vendor format
0986_20080605_131908_Voyager.mb56.gz 362.32MB Simrad multibeam vendor format
0987_20080605_142038_Voyager.mb56.gz 332.10MB Simrad multibeam vendor format
0988_20080605_151650_Voyager.mb56.gz 359.94MB Simrad multibeam vendor format
0989_20080605_162027_Voyager.mb56.gz 171.58MB Simrad multibeam vendor format
0990_20080605_165613_Voyager.mb56.gz 255.84MB Simrad multibeam vendor format
0991_20080605_174021_Voyager.mb56.gz 315.08MB Simrad multibeam vendor format
0992_20080605_183308_Voyager.mb56.gz 275.26MB Simrad multibeam vendor format
0993_20080605_191758_Voyager.mb56.gz 155.97MB Simrad multibeam vendor format
0994_20080605_194533_Voyager.mb56.gz 113.13MB Simrad multibeam vendor format
0995_20080605_200357_Voyager.mb56.gz 95.18MB Simrad multibeam vendor format
0996_20080605_202147_Voyager.mb56.gz 217.63MB Simrad multibeam vendor format
0997_20080605_205537_Voyager.mb56.gz 277.82MB Simrad multibeam vendor format
0998_20080605_214233_Voyager.mb56.gz 74.63MB Simrad multibeam vendor format
0999_20080605_220746_Voyager.mb56.gz 147.26MB Simrad multibeam vendor format
1000_20080605_224916_Voyager.mb56.gz 131.13MB Simrad multibeam vendor format
1001_20080605_231135_Voyager.mb56.gz 111.24MB Simrad multibeam vendor format
1002_20080605_233155_Voyager.mb56.gz 97.78MB Simrad multibeam vendor format
1003_20080605_234911_Voyager.mb56.gz 56.06MB Simrad multibeam vendor format
1004_20080606_000406_Voyager.mb56.gz 27.95MB Simrad multibeam vendor format
1005_20080606_001058_Voyager.mb56.gz 11.69MB Simrad multibeam vendor format
1006_20080606_002053_Voyager.mb56.gz 242.42MB Simrad multibeam vendor format
1007_20080606_010227_Voyager.mb56.gz 193.23MB Simrad multibeam vendor format
1008_20080606_013447_Voyager.mb56.gz 181.67MB Simrad multibeam vendor format
1009_20080606_020559_Voyager.mb56.gz 179.58MB Simrad multibeam vendor format
1010_20080606_024205_Voyager.mb56.gz 173.37MB Simrad multibeam vendor format
1011_20080606_031223_Voyager.mb56.gz 174.16MB Simrad multibeam vendor format
1012_20080606_034145_Voyager.mb56.gz 166.34MB Simrad multibeam vendor format
1013_20080606_041030_Voyager.mb56.gz 155.86MB Simrad multibeam vendor format
1014_20080606_043805_Voyager.mb56.gz 157.07MB Simrad multibeam vendor format
1015_20080606_050506_Voyager.mb56.gz 146.54MB Simrad multibeam vendor format
1016_20080606_053030_Voyager.mb56.gz 151.22MB Simrad multibeam vendor format
1017_20080606_055622_Voyager.mb56.gz 139.16MB Simrad multibeam vendor format
1018_20080606_062037_Voyager.mb56.gz 139.07MB Simrad multibeam vendor format
1019_20080606_064530_Voyager.mb56.gz 126.35MB Simrad multibeam vendor format
1020_20080606_070752_Voyager.mb56.gz 119.96MB Simrad multibeam vendor format
1021_20080606_072948_Voyager.mb56.gz 120.19MB Simrad multibeam vendor format
1022_20080606_075119_Voyager.mb56.gz 119.15MB Simrad multibeam vendor format
1023_20080606_081220_Voyager.mb56.gz 113.42MB Simrad multibeam vendor format
1024_20080606_083244_Voyager.mb56.gz 102.02MB Simrad multibeam vendor format
1025_20080606_085116_Voyager.mb56.gz 97.78MB Simrad multibeam vendor format
1026_20080606_090937_Voyager.mb56.gz 93.65MB Simrad multibeam vendor format
1027_20080606_092646_Voyager.mb56.gz 88.42MB Simrad multibeam vendor format
1028_20080606_094303_Voyager.mb56.gz 71.25MB Simrad multibeam vendor format
1029_20080606_100125_Voyager.mb56.gz 99.29MB Simrad multibeam vendor format
1030_20080606_101823_Voyager.mb56.gz 99.51MB Simrad multibeam vendor format
1031_20080606_103443_Voyager.mb56.gz 93.65MB Simrad multibeam vendor format
1032_20080606_104927_Voyager.mb56.gz 90.14MB Simrad multibeam vendor format
1033_20080606_110401_Voyager.mb56.gz 83.98MB Simrad multibeam vendor format
1034_20080606_111644_Voyager.mb56.gz 87.40MB Simrad multibeam vendor format
1035_20080606_113041_Voyager.mb56.gz 187.42MB Simrad multibeam vendor format
1036_20080606_115938_Voyager.mb56.gz 163.36MB Simrad multibeam vendor format
1037_20080606_122505_Voyager.mb56.gz 143.94MB Simrad multibeam vendor format
1038_20080606_124831_Voyager.mb56.gz 114.80MB Simrad multibeam vendor format
1039_20080606_130709_Voyager.mb56.gz 167.17MB Simrad multibeam vendor format
1040_20080606_140346_Voyager.mb56.gz 38.15MB Simrad multibeam vendor format
1041_20080606_143139_Voyager.mb56.gz 29.30MB Simrad multibeam vendor format
1042_20080606_144255_Voyager.mb56.gz 26.49MB Simrad multibeam vendor format
1043_20080606_145024_Voyager.mb56.gz 46.78MB Simrad multibeam vendor format
1044_20080606_145852_Voyager.mb56.gz 50.78MB Simrad multibeam vendor format
1045_20080606_151250_Voyager.mb56.gz 52.77MB Simrad multibeam vendor format
1046_20080606_152221_Voyager.mb56.gz 32.38MB Simrad multibeam vendor format
1047_20080606_154830_Voyager.mb56.gz 22.47MB Simrad multibeam vendor format
1048_20080606_160003_Voyager.mb56.gz 23.84MB Simrad multibeam vendor format
1049_20080606_160803_Voyager.mb56.gz 90.82MB Simrad multibeam vendor format
1050_20080606_161955_Voyager.mb56.gz 97.40MB Simrad multibeam vendor format
1051_20080606_170534_Voyager.mb56.gz 23.03MB Simrad multibeam vendor format
1052_20080606_172050_Voyager.mb56.gz 268.37MB Simrad multibeam vendor format
1053_20080606_175539_Voyager.mb56.gz 217.27MB Simrad multibeam vendor format
1054_20080606_183552_Voyager.mb56.gz 203.13MB Simrad multibeam vendor format
1055_20080606_190119_Voyager.mb56.gz 173.85MB Simrad multibeam vendor format
1056_20080606_192316_Voyager.mb56.gz 140.38MB Simrad multibeam vendor format
1057_20080606_194552_Voyager.mb56.gz 148.24MB Simrad multibeam vendor format
1058_20080606_200723_Voyager.mb56.gz 150.17MB Simrad multibeam vendor format
1059_20080606_202902_Voyager.mb56.gz 148.85MB Simrad multibeam vendor format
1060_20080606_204931_Voyager.mb56.gz 146.30MB Simrad multibeam vendor format
1061_20080606_210932_Voyager.mb56.gz 160.97MB Simrad multibeam vendor format
1062_20080606_212946_Voyager.mb56.gz 148.39MB Simrad multibeam vendor format
1063_20080606_214953_Voyager.mb56.gz 206.26MB Simrad multibeam vendor format
1064_20080606_222347_Voyager.mb56.gz 166.39MB Simrad multibeam vendor format
1065_20080606_224350_Voyager.mb56.gz 151.46MB Simrad multibeam vendor format
1066_20080606_230150_Voyager.mb56.gz 169.56MB Simrad multibeam vendor format
1067_20080606_232100_Voyager.mb56.gz 144.94MB Simrad multibeam vendor format
1068_20080606_233843_Voyager.mb56.gz 147.14MB Simrad multibeam vendor format
1069_20080606_235619_Voyager.mb56.gz 124.31MB Simrad multibeam vendor format
1070_20080607_001136_Voyager.mb56.gz 135.81MB Simrad multibeam vendor format
1071_20080607_002732_Voyager.mb56.gz 124.63MB Simrad multibeam vendor format
1072_20080607_004227_Voyager.mb56.gz 271.00MB Simrad multibeam vendor format
1073_20080607_011314_Voyager.mb56.gz 265.65MB Simrad multibeam vendor format
1074_20080607_014335_Voyager.mb56.gz 240.62MB Simrad multibeam vendor format
1075_20080607_021131_Voyager.mb56.gz 218.22MB Simrad multibeam vendor format
1076_20080607_023701_Voyager.mb56.gz 195.18MB Simrad multibeam vendor format
1077_20080607_030000_Voyager.mb56.gz 166.38MB Simrad multibeam vendor format
1078_20080607_031940_Voyager.mb56.gz 138.35MB Simrad multibeam vendor format
1079_20080607_033552_Voyager.mb56.gz 112.55MB Simrad multibeam vendor format
1080_20080607_034941_Voyager.mb56.gz 93.70MB Simrad multibeam vendor format
1081_20080607_040056_Voyager.mb56.gz 77.16MB Simrad multibeam vendor format
1082_20080607_041119_Voyager.mb56.gz 62.96MB Simrad multibeam vendor format
1083_20080607_045804_Voyager.mb56.gz 29.25MB Simrad multibeam vendor format
1084_20080607_050921_Voyager.mb56.gz 103.27MB Simrad multibeam vendor format
1085_20080607_053641_Voyager.mb56.gz 456.30MB Simrad multibeam vendor format
1086_20080607_065548_Voyager.mb56.gz 425.14MB Simrad multibeam vendor format
1087_20080607_085710_Voyager.mb56.gz 763.04MB Simrad multibeam vendor format
1088_20080607_103320_Voyager.mb56.gz 57.94MB Simrad multibeam vendor format
1089_20080607_104107_Voyager.mb56.gz 242.46MB Simrad multibeam vendor format
1090_20080607_113713_Voyager.mb56.gz 523.59MB Simrad multibeam vendor format
1091_20080607_123824_Voyager.mb56.gz 310.98MB Simrad multibeam vendor format
1092_20080607_131504_Voyager.mb56.gz 280.94MB Simrad multibeam vendor format
1093_20080607_134903_Voyager.mb56.gz 237.56MB Simrad multibeam vendor format
1094_20080607_141842_Voyager.mb56.gz 133.21MB Simrad multibeam vendor format
1095_20080607_144344_Voyager.mb56.gz 188.84MB Simrad multibeam vendor format
1096_20080607_150601_Voyager.mb56.gz 197.62MB Simrad multibeam vendor format
1097_20080607_152946_Voyager.mb56.gz 190.90MB Simrad multibeam vendor format
1098_20080607_160709_Voyager.mb56.gz 295.07MB Simrad multibeam vendor format
1099_20080607_164255_Voyager.mb56.gz 307.14MB Simrad multibeam vendor format
1100_20080607_172638_Voyager.mb56.gz 57.70MB Simrad multibeam vendor format
1101_20080607_174302_Voyager.mb56.gz 196.22MB Simrad multibeam vendor format
1102_20080607_180505_Voyager.mb56.gz 184.20MB Simrad multibeam vendor format
1103_20080607_182642_Voyager.mb56.gz 187.56MB Simrad multibeam vendor format
1104_20080607_184837_Voyager.mb56.gz 226.43MB Simrad multibeam vendor format
1105_20080607_191451_Voyager.mb56.gz 279.06MB Simrad multibeam vendor format
1106_20080607_194649_Voyager.mb56.gz 145.12MB Simrad multibeam vendor format
1107_20080607_200442_Voyager.mb56.gz 426.72MB Simrad multibeam vendor format
1108_20080607_213606_Voyager.mb56.gz 457.43MB Simrad multibeam vendor format
1109_20080607_224658_Voyager.mb56.gz 381.86MB Simrad multibeam vendor format
1110_20080607_234858_Voyager.mb56.gz 419.18MB Simrad multibeam vendor format
1111_20080608_005417_Voyager.mb56.gz 393.57MB Simrad multibeam vendor format
1112_20080608_015547_Voyager.mb56.gz 435.75MB Simrad multibeam vendor format
1113_20080608_030445_Voyager.mb56.gz 388.78MB Simrad multibeam vendor format
1114_20080608_041224_Voyager.mb56.gz 24.85MB Simrad multibeam vendor format
1115_20080608_041703_Voyager.mb56.gz 27.93MB Simrad multibeam vendor format
1116_20080608_044205_Voyager.mb56.gz 133.93MB Simrad multibeam vendor format
1117_20080608_045939_Voyager.mb56.gz 117.00MB Simrad multibeam vendor format
1118_20080608_051505_Voyager.mb56.gz 134.65MB Simrad multibeam vendor format
1119_20080608_053210_Voyager.mb56.gz 127.32MB Simrad multibeam vendor format
1120_20080608_054916_Voyager.mb56.gz 116.74MB Simrad multibeam vendor format
1121_20080608_060320_Voyager.mb56.gz 128.64MB Simrad multibeam vendor format
1122_20080608_061844_Voyager.mb56.gz 250.66MB Simrad multibeam vendor format
1123_20080608_064751_Voyager.mb56.gz 250.78MB Simrad multibeam vendor format
1124_20080608_071625_Voyager.mb56.gz 229.45MB Simrad multibeam vendor format
1125_20080608_074254_Voyager.mb56.gz 199.70MB Simrad multibeam vendor format
1126_20080608_080619_Voyager.mb56.gz 166.43MB Simrad multibeam vendor format
1127_20080608_082635_Voyager.mb56.gz 121.43MB Simrad multibeam vendor format
1128_20080608_084103_Voyager.mb56.gz 86.98MB Simrad multibeam vendor format
1129_20080608_085202_Voyager.mb56.gz 28.47MB Simrad multibeam vendor format
1130_20080608_085910_Voyager.mb56.gz 53.66MB Simrad multibeam vendor format
1131_20080608_092125_Voyager.mb56.gz 7.65MB Simrad multibeam vendor format
1132_20080608_093430_Voyager.mb56.gz 10.31MB Simrad multibeam vendor format
1133_20080608_093918_Voyager.mb56.gz 45.64MB Simrad multibeam vendor format
1134_20080608_094643_Voyager.mb56.gz 10.58MB Simrad multibeam vendor format
1135_20080608_100112_Voyager.mb56.gz 149.18MB Simrad multibeam vendor format
1136_20080608_102135_Voyager.mb56.gz 119.35MB Simrad multibeam vendor format
1137_20080608_103624_Voyager.mb56.gz 128.77MB Simrad multibeam vendor format
1138_20080608_105436_Voyager.mb56.gz 131.37MB Simrad multibeam vendor format
1139_20080608_111057_Voyager.mb56.gz 478.36MB Simrad multibeam vendor format
1140_20080608_121037_Voyager.mb56.gz 253.88MB Simrad multibeam vendor format
1141_20080608_124738_Voyager.mb56.gz 235.39MB Simrad multibeam vendor format
1142_20080608_132057_Voyager.mb56.gz 229.55MB Simrad multibeam vendor format
1143_20080608_135142_Voyager.mb56.gz 226.14MB Simrad multibeam vendor format
1144_20080608_142138_Voyager.mb56.gz 221.97MB Simrad multibeam vendor format
1145_20080608_144930_Voyager.mb56.gz 238.91MB Simrad multibeam vendor format
1146_20080608_151946_Voyager.mb56.gz 77.39MB Simrad multibeam vendor format
1147_20080608_153424_Voyager.mb56.gz 648.80MB Simrad multibeam vendor format
1148_20080608_175541_Voyager.mb56.gz 160.55MB Simrad multibeam vendor format
1149_20080608_182149_Voyager.mb56.gz 142.86MB Simrad multibeam vendor format
1150_20080608_185117_Voyager.mb56.gz 139.29MB Simrad multibeam vendor format
1151_20080608_191521_Voyager.mb56.gz 173.57MB Simrad multibeam vendor format
1152_20080608_194447_Voyager.mb56.gz 193.01MB Simrad multibeam vendor format
1153_20080608_201617_Voyager.mb56.gz 196.89MB Simrad multibeam vendor format
1154_20080608_204731_Voyager.mb56.gz 210.71MB Simrad multibeam vendor format
1155_20080608_212315_Voyager.mb56.gz 238.91MB Simrad multibeam vendor format
1156_20080608_220133_Voyager.mb56.gz 262.66MB Simrad multibeam vendor format
1157_20080608_224426_Voyager.mb56.gz 392.49MB Simrad multibeam vendor format
1158_20080608_234426_Voyager.mb56.gz 398.67MB Simrad multibeam vendor format
1159_20080609_004544_Voyager.mb56.gz 387.06MB Simrad multibeam vendor format
1160_20080609_014402_Voyager.mb56.gz 89.74MB Simrad multibeam vendor format
1161_20080609_020026_Voyager.mb56.gz 199.95MB Simrad multibeam vendor format
1162_20080609_022646_Voyager.mb56.gz 133.38MB Simrad multibeam vendor format
1163_20080609_024447_Voyager.mb56.gz 69.30MB Simrad multibeam vendor format
1164_20080609_025405_Voyager.mb56.gz 14.70MB Simrad multibeam vendor format
1165_20080609_041056_Voyager.mb56.gz 241.48MB Simrad multibeam vendor format
1166_20080609_051634_Voyager.mb56.gz 219.31MB Simrad multibeam vendor format
1167_20080609_060104_Voyager.mb56.gz 189.41MB Simrad multibeam vendor format
1168_20080609_064210_Voyager.mb56.gz 233.19MB Simrad multibeam vendor format
1169_20080609_073301_Voyager.mb56.gz 337.45MB Simrad multibeam vendor format
1170_20080609_090127_Voyager.mb56.gz 157.06MB Simrad multibeam vendor format
1171_20080609_094134_Voyager.mb56.gz 325.78MB Simrad multibeam vendor format
1172_20080609_103811_Voyager.mb56.gz 281.62MB Simrad multibeam vendor format
1173_20080609_112821_Voyager.mb56.gz 416.80MB Simrad multibeam vendor format
1174_20080609_123427_Voyager.mb56.gz 384.02MB Simrad multibeam vendor format
1175_20080609_133429_Voyager.mb56.gz 364.54MB Simrad multibeam vendor format
1176_20080609_142159_Voyager.mb56.gz 251.24MB Simrad multibeam vendor format
1177_20080609_150222_Voyager.mb56.gz 124.75MB Simrad multibeam vendor format
1178_20080609_152323_Voyager.mb56.gz 88.34MB Simrad multibeam vendor format
1179_20080609_154116_Voyager.mb56.gz 97.21MB Simrad multibeam vendor format
1180_20080609_161218_Voyager.mb56.gz 79.62MB Simrad multibeam vendor format
1181_20080609_203225_Voyager.mb56.gz 492.03MB Simrad multibeam vendor format
1182_20080609_215817_Voyager.mb56.gz 470.89MB Simrad multibeam vendor format
1183_20080609_231532_Voyager.mb56.gz 432.05MB Simrad multibeam vendor format
1184_20080610_003004_Voyager.mb56.gz 441.31MB Simrad multibeam vendor format
1185_20080610_014328_Voyager.mb56.gz 457.81MB Simrad multibeam vendor format
1186_20080610_025715_Voyager.mb56.gz 477.93MB Simrad multibeam vendor format
1187_20080610_041525_Voyager.mb56.gz 443.23MB Simrad multibeam vendor format
1188_20080610_052627_Voyager.mb56.gz 396.42MB Simrad multibeam vendor format
1189_20080610_063620_Voyager.mb56.gz 101.10MB Simrad multibeam vendor format
1190_20080610_081630_Voyager.mb56.gz 495.90MB Simrad multibeam vendor format
1191_20080610_093723_Voyager.mb56.gz 557.89MB Simrad multibeam vendor format
1192_20080610_110956_Voyager.mb56.gz 492.13MB Simrad multibeam vendor format
1193_20080610_123931_Voyager.mb56.gz 232.07MB Simrad multibeam vendor format
1194_20080610_132200_Voyager.mb56.gz 78.62MB Simrad multibeam vendor format
1195_20080610_133817_Voyager.mb56.gz 26.09MB Simrad multibeam vendor format
1195_20080610_135023_Voyager.mb56.gz 52.58MB Simrad multibeam vendor format
1196_20080610_134458_Voyager.mb56.gz 27.30MB Simrad multibeam vendor format
1197_20080610_135938_Voyager.mb56.gz 20.14MB Simrad multibeam vendor format
1198_20080610_140402_Voyager.mb56.gz 12.27MB Simrad multibeam vendor format
1199_20080610_142321_Voyager.mb56.gz 19.98MB Simrad multibeam vendor format
1200_20080610_143642_Voyager.mb56.gz 256.74MB Simrad multibeam vendor format
1201_20080610_150704_Voyager.mb56.gz 53.75MB Simrad multibeam vendor format
1202_20080610_151900_Voyager.mb56.gz 1.23MB Simrad multibeam vendor format
1202_20080610_155215_Voyager.mb56.gz 168.86MB Simrad multibeam vendor format
1203_20080610_162708_Voyager.mb56.gz 37.84MB Simrad multibeam vendor format
1204_20080610_164312_Voyager.mb56.gz 168.57MB Simrad multibeam vendor format
1205_20080610_171715_Voyager.mb56.gz 29.19MB Simrad multibeam vendor format
1206_20080610_172808_Voyager.mb56.gz 251.15MB Simrad multibeam vendor format
1207_20080610_181602_Voyager.mb56.gz 241.48MB Simrad multibeam vendor format
1208_20080610_185613_Voyager.mb56.gz 17.06MB Simrad multibeam vendor format
1209_20080610_190251_Voyager.mb56.gz 11.26MB Simrad multibeam vendor format
1210_20080610_191739_Voyager.mb56.gz 70.36MB Simrad multibeam vendor format
1211_20080610_193013_Voyager.mb56.gz 254.60MB Simrad multibeam vendor format
1212_20080610_202637_Voyager.mb56.gz 216.15MB Simrad multibeam vendor format
1213_20080610_211016_Voyager.mb56.gz 15.79MB Simrad multibeam vendor format
1214_20080610_212108_Voyager.mb56.gz 139.52MB Simrad multibeam vendor format
1215_20080610_215335_Voyager.mb56.gz 500.62MB Simrad multibeam vendor format
1216_20080610_231447_Voyager.mb56.gz 530.22MB Simrad multibeam vendor format
1217_20080611_004251_Voyager.mb56.gz 481.64MB Simrad multibeam vendor format
1218_20080611_020300_Voyager.mb56.gz 519.73MB Simrad multibeam vendor format
1219_20080611_033215_Voyager.mb56.gz 487.71MB Simrad multibeam vendor format
1220_20080611_051331_Voyager.mb56.gz 103.83MB Simrad multibeam vendor format
1221_20080611_054948_Voyager.mb56.gz 138.06MB Simrad multibeam vendor format
1222_20080611_064425_Voyager.mb56.gz 345.81MB Simrad multibeam vendor format
1223_20080611_085742_Voyager.mb56.gz 258.52MB Simrad multibeam vendor format
1224_20080611_105705_Voyager.mb56.gz 467.62MB Simrad multibeam vendor format
1225_20080611_121416_Voyager.mb56.gz 503.04MB Simrad multibeam vendor format
1226_20080611_133758_Voyager.mb56.gz 479.45MB Simrad multibeam vendor format
1227_20080611_145552_Voyager.mb56.gz 504.64MB Simrad multibeam vendor format
1228_20080611_162007_Voyager.mb56.gz 434.97MB Simrad multibeam vendor format
1229_20080612_051945_Voyager.mb56.gz 787.53MB Simrad multibeam vendor format
1230_20080612_072359_Voyager.mb56.gz 757.11MB Simrad multibeam vendor format
1231_20080612_092212_Voyager.mb56.gz 514.39MB Simrad multibeam vendor format
1232_20080612_103623_Voyager.mb56.gz 521.43MB Simrad multibeam vendor format
1233_20080612_115225_Voyager.mb56.gz 497.51MB Simrad multibeam vendor format
1234_20080612_130559_Voyager.mb56.gz 514.79MB Simrad multibeam vendor format
1235_20080612_141956_Voyager.mb56.gz 475.54MB Simrad multibeam vendor format
1236_20080612_154601_Voyager.mb56.gz 464.63MB Simrad multibeam vendor format
1237_20080612_165229_Voyager.mb56.gz 481.17MB Simrad multibeam vendor format
1238_20080612_180432_Voyager.mb56.gz 431.49MB Simrad multibeam vendor format
1239_20080612_190724_Voyager.mb56.gz 411.14MB Simrad multibeam vendor format
1240_20080612_200849_Voyager.mb56.gz 437.18MB Simrad multibeam vendor format
1241_20080612_211203_Voyager.mb56.gz 435.58MB Simrad multibeam vendor format
1242_20080612_221744_Voyager.mb56.gz 119.52MB Simrad multibeam vendor format
1243_20080612_224623_Voyager.mb56.gz 369.79MB Simrad multibeam vendor format
1244_20080612_234210_Voyager.mb56.gz 326.89MB Simrad multibeam vendor format
1245_20080613_003042_Voyager.mb56.gz 314.98MB Simrad multibeam vendor format
1246_20080613_011805_Voyager.mb56.gz 297.95MB Simrad multibeam vendor format
1247_20080613_020144_Voyager.mb56.gz 280.61MB Simrad multibeam vendor format
1248_20080613_024622_Voyager.mb56.gz 249.82MB Simrad multibeam vendor format
1249_20080613_032416_Voyager.mb56.gz 135.46MB Simrad multibeam vendor format
1250_20080613_034648_Voyager.mb56.gz 220.28MB Simrad multibeam vendor format
1251_20080613_042140_Voyager.mb56.gz 143.61MB Simrad multibeam vendor format
1252_20080613_044512_Voyager.mb56.gz 76.55MB Simrad multibeam vendor format
1253_20080613_045712_Voyager.mb56.gz 131.20MB Simrad multibeam vendor format
1254_20080613_052440_Voyager.mb56.gz 298.93MB Simrad multibeam vendor format
1255_20080613_061104_Voyager.mb56.gz 22.10MB Simrad multibeam vendor format
1256_20080613_062137_Voyager.mb56.gz 344.27MB Simrad multibeam vendor format
1257_20080613_071410_Voyager.mb56.gz 29.26MB Simrad multibeam vendor format
1258_20080613_072234_Voyager.mb56.gz 9.83MB Simrad multibeam vendor format
1259_20080613_073302_Voyager.mb56.gz 41.76MB Simrad multibeam vendor format
1260_20080613_074704_Voyager.mb56.gz 6.83MB Simrad multibeam vendor format
1261_20080613_075147_Voyager.mb56.gz 81.21MB Simrad multibeam vendor format
1262_20080613_080131_Voyager.mb56.gz 48.47MB Simrad multibeam vendor format
1263_20080613_081043_Voyager.mb56.gz 13.50MB Simrad multibeam vendor format
1264_20080613_082631_Voyager.mb56.gz 42.87MB Simrad multibeam vendor format
1265_20080613_090911_Voyager.mb56.gz 228.86MB Simrad multibeam vendor format
1266_20080613_102015_Voyager.mb56.gz 233.97MB Simrad multibeam vendor format
1267_20080613_110430_Voyager.mb56.gz 80.58MB Simrad multibeam vendor format
1268_20080613_112023_Voyager.mb56.gz 174.07MB Simrad multibeam vendor format
1269_20080613_115522_Voyager.mb56.gz 235.06MB Simrad multibeam vendor format
1270_20080613_124043_Voyager.mb56.gz 236.12MB Simrad multibeam vendor format
1271_20080613_132807_Voyager.mb56.gz 107.96MB Simrad multibeam vendor format
1272_20080613_135437_Voyager.mb56.gz 5.41MB Simrad multibeam vendor format
1273_20080613_140417_Voyager.mb56.gz 92.17MB Simrad multibeam vendor format
1274_20080613_142727_Voyager.mb56.gz 201.72MB Simrad multibeam vendor format
1275_20080613_151633_Voyager.mb56.gz 209.88MB Simrad multibeam vendor format
1276_20080613_160454_Voyager.mb56.gz 207.02MB Simrad multibeam vendor format
1277_20080613_165321_Voyager.mb56.gz 211.69MB Simrad multibeam vendor format
1278_20080613_174249_Voyager.mb56.gz 221.95MB Simrad multibeam vendor format
1279_20080613_182848_Voyager.mb56.gz 234.36MB Simrad multibeam vendor format
1280_20080613_191646_Voyager.mb56.gz 223.15MB Simrad multibeam vendor format
1281_20080613_200317_Voyager.mb56.gz 97.64MB Simrad multibeam vendor format
1282_20080613_202820_Voyager.mb56.gz 24.15MB Simrad multibeam vendor format

Metadata Files: 1

Files File Size Description
CV08_01_Multibeam.xml NGDC created ISO metadata